COSMOS 397 DEB *, 14446

Orbit data source: Space-Track

COSMOS 397 DEB *, 14446 is space debris in LEO originally from a launch on Thu, 25 Feb 1971 UTC launched from the Tyuratam Missile And Space Complex (TTMTR). Debris objects in space refer to the collection of defunct objects orbiting the Earth. Examples of debris include non-operational satellites, rocket bodies, and fragments generated from explosions, collisions, or faulty payload assembly.

Loading next visibility...
Identifier
14446, 1971-015CQ
Orbit
LEO
Country
Flag of CISCIS
Related business
Manufacturer
Unknown
Mission
Spacecraft
Bus & Motor
Unknown
Mass
Unknown
Launch date (UTC)
1971-02-25 (55 years ago)
Launch vehicle
Unknown
Launch site
Tyuratam Missile And Space Complex (TTMTR)
Object type
Payload
Rocket body
Debris
Shape & HBR
Unknown shape, 0.1 m
Radar Cross Section
Small (<0.1 m²)

Expand to show TLE details & history
Last TLE update: 1 day ago

TLE from 1 day ago
0 COSMOS 397 DEB *
1 14446U 71015CQ  25348.57379027  .00000580  00000-0  80595-3 0  9998
2 14446  65.5718  44.4113 0066047 223.3410 285.5969 13.64848979619210
Epoch: 2025-12-14T13:46Z
TLE epoch observation values (Epoch: 2025-12-14T13:46:15.479Z)
Latitude
28.72596°
Longitude
-79.9766°
Altitude
1,007.895 km
Speed
7.357 km/s
True Right ascension
14h 00m 17s
True Declination
28° 35' 10"
Sunlit
Object was in daylight at epoch
Visualization orbit readout
Latitude
Unknown
Longitude
Unknown
Altitude
Unknown
Speed
Unknown
Apparent Right ascension
Unknown
Apparent Declination
Unknown
Sunlit
N/A
Visualization observer readout
Local Sidereal Time
13:18:24
Azimuth
Unknown
Elevation
Unknown
Doppler factor
Unknown
Orbital elements
Apogee altitude
1,065.517 km
Perigee altitude
967.836 km
Semi-major axis
7,394.814 km
Eccentricity
0.0066
Inclination
65.5718°
RAAN
44.4113°
Arg. of periapsis
223.341°
True anomaly
284.86632°
Mean anomaly
285.5969°
Eccentric anomaly
285.23177°
Mean motion
3.41313 °/min
Orbital period
105.48 mins
BSTAR
0.00080595
Loading maneuver chart data...
Computing Atmospheric mass density...
Loading historical data...
Loading historical data...
Loading historical data...
Loading historical data...
Loading historical data...
Loading historical data...
Loading historical data...

Documentation

Showing up to 5 results
|